This demonstration page uses our WeatherBlox Daily Observations layout. Learn more.

Left ArrowRight Arrow

Hourly Observations for November 22, 2015

Temp ( °F °C ) Dew Point ( °F °C ) Humidity (%) Winds ( mph kmh ) Pressure ( in mb ) Visibility ( mi km ) Precip ( " mm )
12:53 am 00:53 Cloudy 34 1.1 29 -1.7 82 82 W 10 17 30.13 1020 10 16 0.00 0.00
1:53 am 01:53 Cloudy 34 1.1 28 -2.2 79 79 W 6 9 30.14 1021 10 16 0.00 0.00
2:16 am 02:16 Cloudy 34 1.1 28 -2.2 79 79 W 10 17 30.18 1022 10 16 0.00 0.00
2:53 am 02:53 Cloudy 33 0.6 28 -2.2 82 82 W 10 17 30.16 1022 10 16 0.00 0.00
3:53 am 03:53 Cloudy 32 0 28 -2.2 85 85 WNW 9 15 30.17 1022 10 16 0.00 0.00
4:53 am 04:53 Cloudy 32 0 26 -3.3 79 79 WNW 12 19 30.19 1022 10 16 0.00 0.00
5:03 am 05:03 Cloudy 32 0 25 -3.9 75 75 WNW 12 19 30.21 1023 10 16 0.00 0.00
5:53 am 05:53 Cloudy 32 0 25 -3.9 75 75 WNW 9 15 30.20 1023 10 16 0.00 0.00
6:53 am 06:53 Cloudy 31 -0.6 23 -5 72 72 WNW 10 17 30.21 1023 10 16 0.00 0.00
7:53 am 07:53 Cloudy 30 -1.1 23 -5 75 75 NW 13 20 30.23 1024 10 16 0.00 0.00
8:53 am 08:53 Cloudy 28 -2.2 21 -6.1 75 75 W 8 13 30.26 1025 10 16 0.00 0.00
9:53 am 09:53 Cloudy 30 -1.1 23 -5 75 75 NW 6 9 30.27 1025 10 16 0.00 0.00
10:31 am 10:31 Partly Cloudy 31 -0.6 22 -5.6 69 69 W 5 7 30.30 1026 10 16 0.00 0.00
10:53 am 10:53 Partly Cloudy 32 0 21 -6.1 64 64 VRB 5 7 30.29 1026 10 16 0.00 0.00
11:00 am 11:00 Mostly Cloudy 32 0 20 -6.7 61 61 W 7 11 30.30 1026 10 16 0.00 0.00
11:31 am 11:31 Partly Cloudy 32 0 21 -6.1 64 64 NW 8 13 30.30 1026 10 16 0.00 0.00
11:53 am 11:53 Sunny 33 0.6 19 -7.2 56 56 WNW 8 13 30.28 1025 10 16 0.00 0.00
12:53 pm 12:53 Sunny 34 1.1 15 -9.4 46 46 N 10 17 30.25 1024 10 16 0.00 0.00
1:53 pm 13:53 Sunny 35 1.7 13 -10.6 40 40 NNW 7 11 30.23 1024 10 16 0.00 0.00
2:53 pm 14:53 Sunny 37 2.8 13 -10.6 37 37 VRB 3 6 30.22 1023 10 16 0.00 0.00
3:53 pm 15:53 Sunny 36 2.2 11 -11.7 35 35 VRB 3 6 30.21 1023 10 16 0.00 0.00
4:53 pm 16:53 Sunny 34 1.1 9 -12.8 35 35 W 3 6 30.22 1024 10 16 0.00 0.00
5:53 pm 17:53 Clear 28 -2.2 14 -10 56 56 WNW 5 7 30.24 1024 10 16 0.00 0.00
6:53 pm 18:53 Clear 25 -3.9 15 -9.4 66 66 Calm 30.24 1024 10 16 0.00 0.00
7:53 pm 19:53 Clear 22 -5.6 15 -9.4 75 75 Calm 30.25 1024 10 16 0.00 0.00
8:53 pm 20:53 Clear 21 -6.1 17 -8.3 85 85 Calm 30.25 1024 10 16 0.00 0.00
9:53 pm 21:53 Clear 20 -6.7 17 -8.3 89 89 Calm 30.24 1024 10 16 0.00 0.00
10:53 pm 22:53 Clear 19 -7.2 16 -8.9 88 88 Calm 30.24 1024 10 16 0.00 0.00
11:53 pm 23:53 Clear 18 -7.8 15 -9.4 88 88 Calm 30.25 1024 10 16 0.00 0.00

Powered by AerisWeather